(°C)
18°
18°
17°
17°
17°
17°
16°
(°C)
13°
12°
11°
11°
12°
11°
11°
SSE
SSE
SSE
SE
SSE
SSE
SSE
(km/h)
7-26
13-28
14-30
14-34
9-35
12-36
10-34
(mm)
0
1
2.4
0
0
1.4
1.8
(%)
12
49
63
65
72
98
91

Elevazione del sole

/ -51.2°
sun-icon
UV 3
07:27
19:28
Luna crescente (19°)
08:51
20:21

METAR per Giannina (LGIO)

Ora Condizioni Temperatura/
Punto di rugiada
Vento Visibilità Meteo Nuvole Pressione Cambiamento Grezzo
18°C / 16°C 130º variable 120º to 180º 4kt Light Rain 1.00mm precipitation Vertical Visibility of 0ft. 1013 - LGIO 262120Z AUTO 13004KT 120V180 //// -RA ////// 18/16 Q1013 RE//
18°C / 15°C 130º 4kt - 1014 - LGIO 262050Z AUTO 13004KT //// // ////// 18/15 Q1014 RE//
18°C / 15°C 130º 7kt - 1014 - LGIO 262020Z AUTO 13007KT //// // ////// 18/15 Q1014 RE//
18°C / 15°C 140º variable 110º to 170º 5kt - 1014 - LGIO 261950Z AUTO 14005KT 110V170 //// // ////// 18/15 Q1014 RE//
18°C / 15°C 150º 5kt - 1014 - LGIO 261920Z AUTO 15005KT //// // ////// 18/15 Q1014 RE//
18°C / 15°C 140º variable 100º to 160º 6kt - 1014 - LGIO 261850Z AUTO 14006KT 100V160 //// // ////// 18/15 Q1014 RE//
18°C / 16°C 120º 8kt - 1014 - LGIO 261820Z AUTO 12008KT //// // ////// 18/16 Q1014 RERA
MVFR 18°C / 16°C 130º 6kt >10km Light Rain 1.00mm precipitation Vertical Visibility of 0ft.
Overcast 3000ft
1014 - LGIO 261750Z 13006KT 9999 -RA FEW020 OVC030 18/16 Q1014
MVFR 17°C / 16°C 130º 1kt >10km Light Rain 1.00mm precipitation Vertical Visibility of 0ft.
Overcast 3000ft
1014 - LGIO 261720Z 13001KT 9999 -RA FEW020 OVC030 17/16 Q1014
MVFR 17°C / 16°C 20º 2kt >10km - Few Clouds 2000ft
Overcast 3000ft
1015 - LGIO 261620Z 02002KT 9999 FEW020 OVC030 17/16 Q1015
MVFR 17°C / 16°C 20º 2kt >10km - Few Clouds 2000ft
Overcast 3000ft
1015 - LGIO 261550Z 02002KT 9999 FEW020 OVC030 17/16 Q1015
MVFR 18°C / 16°C 310º 1kt >10km - Few Clouds 2000ft
Overcast 3000ft
1015 - LGIO 261520Z 31001KT 9999 FEW020 OVC030 18/16 Q1015
MVFR 18°C / 16°C variable 0kt >10km Light Rain 1.00mm precipitation Vertical Visibility of 0ft.
Overcast 3000ft
1015 - LGIO 261450Z 00000KT 9999 -RA FEW020 OVC030 18/16 Q1015
MVFR 17°C / 16°C 280º variable 260º to 320º 4kt >10km Light Rain 1.00mm precipitation Vertical Visibility of 0ft. 1015 - LGIO 261420Z 28004KT 260V320 9999 -RA OVC030 17/16 Q1015
17°C / 15°C 10º variable 320º to 020º 4kt Light Rain 1.00mm precipitation Vertical Visibility of 0ft. 1015 - LGIO 261250Z AUTO 01004KT 320V020 //// -RA ////// 17/15 Q1015 RE//
19°C / 14°C variable 2kt - 1016 - LGIO 261150Z AUTO VRB02KT //// // ////// 19/14 Q1016 RE//
MVFR 19°C / 12°C 100º 2kt >10km - Overcast 3000ft 1017 - LGIO 261020Z 10002KT 9999 OVC030 19/12 Q1017
MVFR 18°C / 12°C 130º 2kt >10km - Overcast 3000ft 1017 - LGIO 260920Z 13002KT 9999 OVC030 18/12 Q1017
MVFR 17°C / 12°C 70º 2kt >10km - Overcast 3000ft 1018 - LGIO 260850Z 07002KT 9999 OVC030 17/12 Q1018
MVFR 17°C / 12°C 120º 3kt >10km - Overcast 3000ft 1018 - LGIO 260820Z 12003KT 9999 OVC030 17/12 Q1018
MVFR 16°C / 13°C 60º 1kt >10km - Overcast 3000ft 1018 - LGIO 260750Z 06001KT 9999 OVC030 16/13 Q1018
VFR 16°C / 11°C 150º 3kt >10km - Overcast 3500ft 1018 - LGIO 260720Z 15003KT 9999 OVC035 16/11 Q1018
VFR 16°C / 9°C 120º 1kt >10km - Overcast 3500ft 1017 - LGIO 260620Z 12001KT 9999 OVC035 16/09 Q1017
VFR 16°C / 9°C 140º 2kt >10km - Few Clouds 3500ft
Overcast 5000ft
1017 - LGIO 260550Z 14002KT 9999 FEW035 OVC050 16/09 Q1017

18°C / 16°C

[Più]
Vento 130º variable 120º to 180º 4kt
Visibilità
Meteo Light Rain 1.00mm precipitation
Nuvole Vertical Visibility of 0ft.
Pressione 1013
Cambiamento -
Grezzo LGIO 262120Z AUTO 13004KT 120V180 //// -RA ////// 18/16 Q1013 RE//

18°C / 15°C

[Più]
Vento 130º 4kt
Visibilità
Meteo -
Nuvole
Pressione 1014
Cambiamento -
Grezzo LGIO 262050Z AUTO 13004KT //// // ////// 18/15 Q1014 RE//

18°C / 15°C

[Più]
Vento 130º 7kt
Visibilità
Meteo -
Nuvole
Pressione 1014
Cambiamento -
Grezzo LGIO 262020Z AUTO 13007KT //// // ////// 18/15 Q1014 RE//

18°C / 15°C

[Più]
Vento 140º variable 110º to 170º 5kt
Visibilità
Meteo -
Nuvole
Pressione 1014
Cambiamento -
Grezzo LGIO 261950Z AUTO 14005KT 110V170 //// // ////// 18/15 Q1014 RE//

18°C / 15°C

[Più]
Vento 150º 5kt
Visibilità
Meteo -
Nuvole
Pressione 1014
Cambiamento -
Grezzo LGIO 261920Z AUTO 15005KT //// // ////// 18/15 Q1014 RE//

18°C / 15°C

[Più]
Vento 140º variable 100º to 160º 6kt
Visibilità
Meteo -
Nuvole
Pressione 1014
Cambiamento -
Grezzo LGIO 261850Z AUTO 14006KT 100V160 //// // ////// 18/15 Q1014 RE//

18°C / 16°C

[Più]
Vento 120º 8kt
Visibilità
Meteo -
Nuvole
Pressione 1014
Cambiamento -
Grezzo LGIO 261820Z AUTO 12008KT //// // ////// 18/16 Q1014 RERA

MVFR

18°C / 16°C

[Più]
Vento 130º 6kt
Visibilità >10km
Meteo Light Rain 1.00mm precipitation
Nuvole Vertical Visibility of 0ft.
Overcast 3000ft
Pressione 1014
Cambiamento -
Grezzo LGIO 261750Z 13006KT 9999 -RA FEW020 OVC030 18/16 Q1014

MVFR

17°C / 16°C

[Più]
Vento 130º 1kt
Visibilità >10km
Meteo Light Rain 1.00mm precipitation
Nuvole Vertical Visibility of 0ft.
Overcast 3000ft
Pressione 1014
Cambiamento -
Grezzo LGIO 261720Z 13001KT 9999 -RA FEW020 OVC030 17/16 Q1014

MVFR

17°C / 16°C

[Più]
Vento 20º 2kt
Visibilità >10km
Meteo -
Nuvole Few Clouds 2000ft
Overcast 3000ft
Pressione 1015
Cambiamento -
Grezzo LGIO 261620Z 02002KT 9999 FEW020 OVC030 17/16 Q1015

MVFR

17°C / 16°C

[Più]
Vento 20º 2kt
Visibilità >10km
Meteo -
Nuvole Few Clouds 2000ft
Overcast 3000ft
Pressione 1015
Cambiamento -
Grezzo LGIO 261550Z 02002KT 9999 FEW020 OVC030 17/16 Q1015

MVFR

18°C / 16°C

[Più]
Vento 310º 1kt
Visibilità >10km
Meteo -
Nuvole Few Clouds 2000ft
Overcast 3000ft
Pressione 1015
Cambiamento -
Grezzo LGIO 261520Z 31001KT 9999 FEW020 OVC030 18/16 Q1015

MVFR

18°C / 16°C

[Più]
Vento variable 0kt
Visibilità >10km
Meteo Light Rain 1.00mm precipitation
Nuvole Vertical Visibility of 0ft.
Overcast 3000ft
Pressione 1015
Cambiamento -
Grezzo LGIO 261450Z 00000KT 9999 -RA FEW020 OVC030 18/16 Q1015

MVFR

17°C / 16°C

[Più]
Vento 280º variable 260º to 320º 4kt
Visibilità >10km
Meteo Light Rain 1.00mm precipitation
Nuvole Vertical Visibility of 0ft.
Pressione 1015
Cambiamento -
Grezzo LGIO 261420Z 28004KT 260V320 9999 -RA OVC030 17/16 Q1015

17°C / 15°C

[Più]
Vento 10º variable 320º to 020º 4kt
Visibilità
Meteo Light Rain 1.00mm precipitation
Nuvole Vertical Visibility of 0ft.
Pressione 1015
Cambiamento -
Grezzo LGIO 261250Z AUTO 01004KT 320V020 //// -RA ////// 17/15 Q1015 RE//

19°C / 14°C

[Più]
Vento variable 2kt
Visibilità
Meteo -
Nuvole
Pressione 1016
Cambiamento -
Grezzo LGIO 261150Z AUTO VRB02KT //// // ////// 19/14 Q1016 RE//

MVFR

19°C / 12°C

[Più]
Vento 100º 2kt
Visibilità >10km
Meteo -
Nuvole Overcast 3000ft
Pressione 1017
Cambiamento -
Grezzo LGIO 261020Z 10002KT 9999 OVC030 19/12 Q1017

MVFR

18°C / 12°C

[Più]
Vento 130º 2kt
Visibilità >10km
Meteo -
Nuvole Overcast 3000ft
Pressione 1017
Cambiamento -
Grezzo LGIO 260920Z 13002KT 9999 OVC030 18/12 Q1017

MVFR

17°C / 12°C

[Più]
Vento 70º 2kt
Visibilità >10km
Meteo -
Nuvole Overcast 3000ft
Pressione 1018
Cambiamento -
Grezzo LGIO 260850Z 07002KT 9999 OVC030 17/12 Q1018

MVFR

17°C / 12°C

[Più]
Vento 120º 3kt
Visibilità >10km
Meteo -
Nuvole Overcast 3000ft
Pressione 1018
Cambiamento -
Grezzo LGIO 260820Z 12003KT 9999 OVC030 17/12 Q1018

MVFR

16°C / 13°C

[Più]
Vento 60º 1kt
Visibilità >10km
Meteo -
Nuvole Overcast 3000ft
Pressione 1018
Cambiamento -
Grezzo LGIO 260750Z 06001KT 9999 OVC030 16/13 Q1018

VFR

16°C / 11°C

[Più]
Vento 150º 3kt
Visibilità >10km
Meteo -
Nuvole Overcast 3500ft
Pressione 1018
Cambiamento -
Grezzo LGIO 260720Z 15003KT 9999 OVC035 16/11 Q1018

VFR

16°C / 9°C

[Più]
Vento 120º 1kt
Visibilità >10km
Meteo -
Nuvole Overcast 3500ft
Pressione 1017
Cambiamento -
Grezzo LGIO 260620Z 12001KT 9999 OVC035 16/09 Q1017

VFR

16°C / 9°C

[Più]
Vento 140º 2kt
Visibilità >10km
Meteo -
Nuvole Few Clouds 3500ft
Overcast 5000ft
Pressione 1017
Cambiamento -
Grezzo LGIO 260550Z 14002KT 9999 FEW035 OVC050 16/09 Q1017

TAF per Giannina (LGIO)

From till


From till Wind variable 3kt. Visibility 10km or more. Broken Clouds 2500ft. Broken Clouds 8000ft.
Temporarly from till Visibility 6000m. Rain .
With 40% probability, Temporarly from till Visibility 4000m. Thunderstorm Rain . Few Clouds 600ft. Few Clouds 1800ft. Broken Clouds 2000ft.

Grezzo: TAF LGIO 262000Z 2621/2706 VRB03KT 9999 BKN025 BKN080 TEMPO 2621/2706 6000 RA PROB40 TEMPO 2621/2706 4000 TSRA FEW006 FEW018CB BKN020 OVC070

Radar e nowcasting per Giannina

Pioviggine
Lieve
Moderato
Forte
Molto forte
Grandine

Il segnaposto è situato a Giannina. Questa animazione mostra il radar delle precipitazioni per l'ultima ora, nonché una previsione 1h. Una pioviggine o una leggera caduta di neve potrebbero essere invisibili per il radar. L'intensità delle precipitazioni è codificata a colori, dal blu chiaro all'arancione.

Tempo in atto per Giannina: immagine satellitare e pioggia, Grecia

Il segnaposto è situato a Giannina. [Più]

L'immagine satellitare in tempo reale combina la luce visibile durante il giorno con la radiazione infrarossa durante la notte. Di notte l'immagine non è scura poiché i raggi infrarossi possono rilevare differenze di temperatura. Purtroppo, le nuvole basse e la nebbia sono difficili da distinguere dalla temperatura del suolo e possono pertanto essere quasi invisibili durante la notte. Le immagini satellitari Meteosat per l'Europa vengono aggiornate in tempo reale ogni 5 minuti. Le immagini GOES-16 / GOES-17 (Nord e Sud America) e Himawari (Asia) vengono aggiornate ogni 10 minuti.

Le precipitazioni sono stimate da radar e satelliti. I calcoli delle precipitazioni dai satelliti sono meno accurati di notte che durante il giorno. Le croci arancioni identificano i fulmini caduti (in Europa).

Copyright 2022 EUMETSAT / meteoblue. Fulminazioni fornite da nowcast.

Tornare su